Theta_e
325 327 327 328 330 331 332 341 339 341 344 346 345 341 342 336 331 331 337 338 335 333 334 334 327 326 330 330 331 331 331 331 329 336 333 326 327 327 327 327 328 327 328
320 321 324 327 327 328 329 330 331 339 338 342 344 344 344 343 339 332 325 334 336 335 332 333 331 328 327 329 331 330 330 331 329 332 332 329 323 325 327 327 327 326 327
318 318 319 322 323 324 327 328 329 329 334 339 341 342 343 342 342 340 336 331 335 335 334 332 330 331 326 327 329 330 330 331 331 329 331 330 318 320 323 326 327 326 326
316 316 317 318 319 320 322 323 326 328 329 329 336 339 340 341 341 341 340 340 336 337 337 338 337 336 334 329 328 326 329 330 331 330 328 331 320 317 318 319 325 327 326
314 314 315 316 317 318 319 320 321 323 326 327 327 327 336 337 340 341 341 341 339 338 340 338 334 335 328 330 332 331 329 328 328 327 324 329 328 323 316 314 321 324 326
313 313 313 314 314 315 317 317 318 319 321 323 325 328 327 328 332 334 335 337 338 338 338 336 334 333 329 323 324 326 328 329 323 324 325 325 329 329 327 323 314 318 324
313 313 312 312 311 312 313 315 316 317 318 319 321 323 324 326 327 326 326 328 332 336 336 335 333 331 329 326 324 322 323 328 324 324 324 326 328 329 328 326 321 315 323
311 312 312 312 311 311 311 311 312 314 316 317 318 319 321 322 324 325 323 323 324 329 330 331 331 329 327 326 324 324 323 321 324 322 324 323 325 327 328 326 324 317 319
310 310 311 311 311 311 311 311 311 312 311 313 316 316 317 320 320 320 322 322 324 326 326 329 331 330 329 328 326 325 325 323 318 320 323 324 325 326 324 325 321 318 315
309 309 309 309 309 310 311 311 311 311 310 311 311 313 315 315 318 320 319 321 323 324 327 326 328 328 328 328 327 326 325 323 321 321 319 320 322 320 319 318 323 322 322
307 307 307 307 307 307 307 307 308 308 308 308 310 311 313 315 316 319 320 319 321 323 325 325 325 325 327 328 327 325 326 323 322 323 323 321 321 320 319 319 317 324 322
304 303 303 303 304 305 305 306 306 307 307 308 309 309 311 312 313 315 316 318 319 319 321 324 322 321 324 328 329 325 325 322 322 324 327 325 325 326 325 321 317 321 323
300 300 300 300 300 301 300 302 302 303 304 305 306 308 311 311 312 314 315 314 318 319 319 320 321 321 323 324 327 324 322 325 325 327 327 326 326 326 325 326 323 320 323
298 298 297 297 297 298 298 299 300 301 302 303 305 306 309 310 312 314 315 312 313 316 318 320 319 320 323 322 325 321 319 324 327 328 326 326 324 324 324 325 323 318 324
297 297 297 296 296 296 297 297 297 298 300 302 304 305 307 308 310 309 312 314 314 313 317 318 319 318 319 320 320 321 318 319 323 327 327 327 325 324 324 324 323 322 316
295 295 295 295 295 295 295 296 296 297 298 299 300 302 304 305 305 306 308 312 312 312 312 312 312 315 317 318 320 320 318 321 322 325 326 326 325 324 323 323 324 322 318
294 293 293 293 294 294 294 295 296 297 297 298 299 300 302 302 303 304 304 304 306 307 308 310 310 311 312 315 315 316 316 319 321 323 323 325 324 324 323 322 322 323 321
292 292 292 293 293 293 294 294 295 296 296 298 298 299 300 300 301 301 302 303 303 304 307 309 311 310 311 313 314 313 314 315 315 318 322 323 324 323 323 323 322 323 323
292 292 292 292 292 292 293 293 294 295 295 296 297 298 299 299 300 300 301 301 302 303 305 307 308 310 311 312 313 314 313 313 314 313 314 316 320 321 322 321 322 322 323
293 292 292 292 292 293 293 293 293 294 294 295 296 297 298 299 299 299 300 300 302 303 305 306 307 307 309 312 312 313 314 314 314 313 315 315 314 318 319 319 319 322 322
293 293 292 292 293 293 293 293 293 293 294 294 295 296 297 298 299 299 300 300 300 302 303 303 305 306 308 309 311 311 312 313 313 314 314 315 316 316 317 318 318 318 322
294 293 293 293 293 293 293 293 294 294 295 294 295 295 296 296 297 298 299 300 301 302 302 302 303 304 306 309 309 310 311 312 313 313 314 314 315 316 316 316 317 318 320
295 295 295 294 294 293 293 293 293 294 295 295 296 296 296 296 296 297 298 300 301 301 301 301 302 303 303 306 308 309 310 311 312 314 314 314 314 315 316 316 316 317 319
296 295 295 295 295 294 293 293 293 293 293 294 294 296 297 296 296 297 297 298 299 300 301 301 302 302 302 303 306 307 307 308 309 311 313 313 313 314 315 317 317 317 317
297 297 297 296 295 294 293 293 292 292 292 293 294 295 296 297 297 297 297 298 298 299 300 301 301 302 303 303 304 306 306 306 307 309 310 311 312 314 313 316 317 317 317
298 297 297 297 295 294 293 292 291 291 291 292 292 294 296 296 297 298 298 298 298 299 300 300 301 302 302 303 304 304 304 304 305 305 307 308 310 311 313 314 317 318 318
Wind_Speed
11 11 12 13 14 14 11 14 20 26 27 26 23 26 28 32 29 28 28 29 30 30 25 24 25 20 15 11 9 7 6 5 6 2 7 6 6 5 4 5 5 6 6
12 11 11 11 13 15 15 13 14 21 27 30 28 26 27 30 32 33 33 31 33 32 32 28 27 23 24 18 14 12 9 9 7 6 10 9 8 6 5 4 6 7 7
14 13 13 12 13 13 13 14 15 15 18 28 32 31 30 31 33 35 36 36 33 35 33 34 33 29 28 22 20 15 13 12 9 7 8 8 8 6 6 6 6 7 8
16 15 15 14 14 13 14 16 13 14 14 15 22 26 34 30 31 36 35 36 36 34 36 34 32 27 24 24 24 23 16 13 11 9 8 6 7 6 8 8 7 7 8
19 18 18 17 16 16 15 15 16 16 16 17 17 18 25 34 32 31 28 32 40 39 32 39 37 34 19 26 16 16 15 17 13 10 11 10 10 8 8 8 9 8 9
21 21 21 20 20 20 18 18 16 16 17 17 16 16 16 19 24 25 33 31 31 38 40 40 41 38 35 29 24 21 15 19 17 14 13 12 9 6 7 9 8 9 10
25 25 24 24 23 22 21 21 20 20 18 19 20 19 19 21 24 24 20 21 28 31 29 33 31 32 31 35 38 28 21 20 25 21 19 11 7 8 10 12 12 7 8
29 28 28 27 27 25 24 23 23 22 22 22 22 22 23 21 24 27 26 25 25 22 30 33 36 39 40 40 38 43 48 33 30 29 22 19 16 11 12 10 10 11 11
31 31 30 31 31 30 28 26 25 25 25 27 25 26 25 26 27 26 27 25 22 23 28 31 33 37 36 36 40 40 36 45 36 37 26 20 19 17 11 9 11 12 12
31 31 31 30 30 27 26 28 29 28 30 29 29 30 30 29 27 30 30 27 22 21 24 25 29 32 35 36 47 45 45 50 40 39 35 29 25 22 17 13 10 8 9
31 31 32 32 31 32 34 34 32 32 35 36 34 33 32 29 27 28 31 30 27 27 19 21 24 29 33 30 40 49 46 43 44 36 30 32 27 25 22 19 15 10 11
29 29 32 35 35 34 34 33 34 34 33 31 31 35 34 34 35 32 33 32 29 28 31 22 20 19 31 33 41 51 49 39 41 38 30 25 24 21 15 13 14 11 14
28 29 31 33 34 32 35 34 39 41 36 36 36 35 33 33 32 33 33 28 26 28 29 26 28 21 20 33 45 50 50 43 45 41 35 29 26 24 16 16 11 17 21
33 34 34 35 34 32 33 32 38 33 31 39 30 33 30 31 24 28 31 32 30 22 28 25 26 20 21 19 33 39 50 27 39 42 30 29 24 23 22 17 14 16 18
33 34 36 36 35 33 32 34 35 36 35 35 30 28 29 23 24 23 24 22 19 22 25 29 25 26 25 27 26 32 47 56 29 29 29 25 25 24 22 20 18 19 16
33 33 34 34 34 35 34 33 34 34 37 38 39 40 36 27 26 17 13 23 23 24 22 22 20 22 27 27 30 36 43 36 34 33 29 26 24 23 23 22 20 20 19
32 34 33 33 34 32 32 33 32 28 30 34 38 41 41 44 39 29 20 15 14 18 19 20 26 21 18 26 28 31 28 31 41 38 37 33 31 27 28 25 23 18 16
31 32 30 30 29 29 28 31 32 31 31 26 30 31 35 39 45 41 38 32 26 23 23 23 24 27 25 21 22 24 28 32 27 27 32 29 30 29 27 26 26 25 19
29 29 27 27 26 26 26 28 28 30 30 32 27 26 31 30 34 42 42 39 33 32 29 30 28 26 29 28 30 25 25 27 26 24 26 32 28 28 26 27 28 30 26
29 27 24 24 24 24 23 24 26 27 28 31 29 31 26 23 28 33 35 38 37 38 36 34 30 31 31 31 31 29 29 29 26 29 31 32 34 35 31 30 27 30 34
26 24 23 22 22 22 21 22 23 25 26 27 27 27 27 29 27 29 31 33 38 35 38 38 36 32 29 34 32 31 31 29 34 34 36 34 35 35 34 31 30 31 30
24 23 22 22 21 20 19 21 21 22 23 24 26 26 27 29 30 32 32 33 32 33 36 36 40 35 33 30 34 34 34 33 32 32 33 35 30 32 30 33 32 33 29
24 24 24 23 21 20 20 19 19 20 21 22 22 24 26 27 29 31 34 30 29 34 35 38 36 35 36 36 33 30 34 32 29 27 30 29 31 31 31 31 33 33 31
28 28 28 27 25 24 23 21 20 19 19 20 22 23 21 24 28 29 30 32 35 34 36 35 36 39 38 39 33 35 39 33 29 31 27 29 31 30 30 31 34 34 31
30 29 30 32 29 26 26 25 23 22 20 19 19 18 18 19 20 25 27 28 31 32 34 35 34 35 33 37 37 34 33 36 43 33 31 31 27 30 35 27 29 31 32
36 33 32 35 35 29 28 28 25 23 21 20 20 19 19 18 18 19 21 24 26 29 34 35 35 34 35 33 31 35 37 38 36 37 38 31 33 32 27 33 28 25 25
Wind_Direction
347 345 339 341 345 343 315 264 255 254 235 229 230 232 225 222 220 221 208 209 222 209 208 215 227 205 214 217 217 218 225 238 257 120 279 297 294 294 286 289 286 302 313
334 336 332 329 325 326 331 329 300 259 248 242 231 234 229 224 220 221 220 214 218 216 211 208 224 217 211 207 214 216 222 227 233 256 261 284 279 280 283 279 285 295 291
323 325 322 322 318 312 311 316 321 320 270 247 243 230 235 225 226 224 223 220 217 221 216 215 218 219 223 212 210 218 217 224 234 240 242 251 269 272 276 272 266 285 296
310 312 310 309 309 306 307 304 304 304 308 298 258 250 235 242 224 227 228 225 223 221 219 214 216 216 219 224 227 209 206 212 224 221 234 231 273 260 265 271 267 268 283
301 299 299 300 300 299 298 296 299 297 296 300 304 293 248 237 235 232 237 222 223 223 220 222 223 218 216 195 231 236 230 219 225 224 232 224 218 271 285 275 261 260 279
298 297 296 295 292 290 290 290 291 290 290 289 279 287 284 274 260 258 243 238 237 236 231 233 232 225 222 219 233 249 235 241 227 226 236 246 215 242 239 259 267 251 257
295 293 292 291 290 289 286 284 282 282 282 282 282 278 272 271 275 273 271 254 248 244 243 245 244 234 246 237 221 236 238 240 251 232 225 233 232 221 233 243 267 252 253
290 289 288 286 285 284 283 281 280 279 278 276 274 277 277 267 269 272 273 273 267 260 244 239 243 241 235 232 230 236 250 247 247 234 233 231 240 220 221 246 237 257 251
286 286 286 285 281 278 277 277 278 280 278 272 269 268 268 273 270 265 268 271 266 260 255 234 240 249 253 245 239 225 239 239 235 234 224 230 228 228 224 210 242 241 252
288 287 292 293 291 289 287 281 277 276 276 274 270 265 263 262 267 272 260 256 256 259 249 251 233 244 253 250 233 229 235 224 222 227 226 228 231 239 238 229 233 221 234
288 287 285 287 287 286 285 279 282 278 274 271 268 264 264 257 256 261 264 263 249 249 250 251 250 240 245 246 232 230 222 222 215 218 225 222 227 235 235 231 214 216 233
287 290 286 279 278 277 276 276 269 272 272 271 269 267 260 258 253 256 263 256 253 249 242 244 239 248 249 240 231 222 225 214 216 210 216 212 213 217 219 227 216 195 231
295 292 292 289 284 286 277 274 270 261 267 264 264 269 260 254 252 252 254 259 255 252 241 240 247 248 245 243 227 212 203 212 210 205 207 203 213 220 208 198 205 213 218
298 295 295 290 287 286 277 276 269 263 264 258 261 262 266 261 257 253 242 253 248 248 235 240 240 226 227 209 197 197 200 214 205 203 195 202 211 209 203 193 239 239 221
299 297 295 292 289 286 279 275 273 264 260 256 254 254 256 261 252 258 253 232 225 238 231 222 223 218 216 215 217 200 207 219 240 204 199 198 208 209 198 209 224 242 231
297 298 297 294 291 285 280 279 273 271 264 257 250 248 250 255 253 259 237 235 229 237 234 234 231 216 215 210 205 212 208 214 220 211 208 207 202 199 200 211 209 220 216
301 299 297 292 287 282 284 278 279 275 273 264 255 249 245 251 253 250 245 243 224 234 231 233 234 222 227 224 220 213 216 209 213 217 217 210 209 212 204 210 215 214 194
309 305 302 297 292 288 280 276 276 274 270 271 262 255 250 247 249 252 252 249 248 234 230 236 230 227 215 212 217 217 220 217 223 218 205 216 209 215 207 206 210 219 202
314 314 311 304 298 291 285 280 272 268 268 266 262 265 255 248 244 245 247 249 242 238 235 238 236 233 228 222 220 221 229 234 220 224 233 227 223 228 214 215 212 217 211
327 325 319 312 308 304 296 285 278 274 268 263 261 259 254 255 250 244 239 238 236 233 232 233 235 235 229 229 227 220 217 216 221 222 215 229 226 225 220 218 214 214 208
333 331 333 327 320 313 303 295 285 277 271 265 261 258 254 244 242 246 244 239 236 231 231 230 230 228 230 227 226 225 220 218 217 217 213 220 216 217 215 216 216 218 209
350 349 343 338 333 324 312 304 295 288 280 270 266 263 257 249 247 239 242 239 231 232 233 233 230 227 222 224 223 224 221 216 218 214 214 214 215 217 215 217 216 216 211
359 357 355 352 347 339 330 320 308 298 290 286 276 275 265 254 248 242 236 234 234 231 233 230 228 227 226 222 225 222 214 214 215 214 211 210 214 214 216 214 216 214 212
9 7 1 357 356 353 346 336 324 309 300 288 278 283 276 257 247 243 237 232 231 236 238 235 233 230 228 222 219 223 215 213 215 216 215 217 217 216 216 216 214 214 213
8 7 5 2 355 349 347 343 334 323 313 302 289 274 275 268 256 246 243 240 233 229 231 232 232 228 223 222 220 219 219 219 216 214 214 221 221 214 215 219 215 213 211
11 7 5 5 4 358 350 343 334 326 316 307 299 283 265 254 262 255 246 238 234 232 226 225 228 229 226 218 217 220 222 224 220 216 215 219 222 218 206 214 215 213 210